OBJECT AH, 43789

Orbit data source: Space-Track

You're viewing an Uncataloged Satellite

Recently launched and/or uncataloged satellites may have evolving metadata. Metadata may include but not limited to: Owner, Maufacturer, Bus, Motor, and Mission.

OBJECT AH, 43789 is a satellite in SSO that was launched on Mon, 03 Dec 2018 UTC via an FALCON 9 launch vehicle from the Air Force Western Test Range (AFWTR). Unknown objects in Earth's orbit typically refer to objects detected orbiting the Earth but have not yet been identified or cataloged. These objects could be anything from previously untracked satellites, spent rocket stages, debris from satellite collisions, or even natural meteoroids temporarily captured by Earth's gravity.

Not visible in the next 10 days
Identifier
43789, 2018-099AH
Orbit
SSO
Country
Flag of TBDTBD
Related business
Flag of USIrvine Public Schools Foundation (US)
Manufacturer
IPSF
Mission
Non-operational Amateur Technology
Bus & Motor
CUBESAT 1U, Unknown motor
Mass
1 kg wet, 1 kg dry
Launch date (UTC)
2018-12-03 (7 years ago)
Launch vehicle
FALCON 9
Launch site
Air Force Western Test Range (AFWTR)
Object type
Unknown
Shape & HBR
Box + 2 Pan, 0.1 m
Radar Cross Section
0.019 m², Small (<0.1 m²)

Expand to show TLE details & history
Last TLE update: 20 hours ago

TLE from 20 hours ago
0 OBJECT AH
1 43789U 18099AH  25349.73124169  .00097314  00000-0  10264-2 0  9993
2 43789  97.4389  63.1387 0004620 180.0025 180.1234 15.63912486386246
Epoch: 2025-12-15T17:32Z
TLE epoch observation values (Epoch: 2025-12-15T17:32:59.282Z)
Latitude
-0.00005°
Longitude
75.2661°
Altitude
382.638 km
Speed
7.679 km/s
True Right ascension
04h 12m 33s
True Declination
0° 00' 00"
Sunlit
Object was in full shadow at epoch
Visualization orbit readout
Latitude
Unknown
Longitude
Unknown
Altitude
Unknown
Speed
Unknown
Apparent Right ascension
Unknown
Apparent Declination
Unknown
Sunlit
N/A
Visualization observer readout
Local Sidereal Time
12:24:40
Azimuth
Unknown
Elevation
Unknown
Doppler factor
Unknown
Orbital elements
Apogee altitude
376.396 km
Perigee altitude
370.158 km
Semi-major axis
6,751.414 km
Eccentricity
0.00046
Inclination
97.4389°
RAAN
63.1387°
Arg. of periapsis
180.0025°
True anomaly
180.12329°
Mean anomaly
180.1234°
Eccentric anomaly
180.12334°
Mean motion
3.91247 °/min
Orbital period
92.01 mins
BSTAR
0.0010264
Loading maneuver chart data...
Computing Atmospheric mass density...
Loading historical data...
Loading historical data...
Loading historical data...
Loading historical data...
Loading historical data...
Loading historical data...
Loading historical data...

Documentation

Showing up to 5 results
|